contact:dominique.lefevre@mio.osupytheas.fr, maurice.libes@osupytheas.fr, didier.mallarino@osupytheas.fr
Project:EMSO http://www.emso-fr.org/EMSO-France
Depth: 2436.0 m
Title:EMSO Ligure Ouest : Data MII capteur MICROCAT
DateTime_Computer,Latitude,Longitude,Temperature,Conductivity,Pressure,DateTime_Instrument
DateTime_Computer,Latitude,Longitude,degC,S m-1,dbar,DateTime_Instrument
2017-11-02T00:01:08Z,42.805,6.029,13.2951,4.59970,2472.002,2017-11-02T02:02:34Z
2017-11-02T00:02:42Z,42.805,6.029,13.2954,4.59974,2472.002,2017-11-02T02:04:09Z
2017-11-02T00:04:17Z,42.805,6.029,13.2950,4.59975,2472.024,2017-11-02T02:05:43Z
2017-11-02T00:05:52Z,42.805,6.029,13.2953,4.59974,2472.002,2017-11-02T02:07:18Z
2017-11-02T00:07:27Z,42.805,6.029,13.2954,4.59975,2472.002,2017-11-02T02:08:53Z
2017-11-02T00:09:02Z,42.805,6.029,13.2961,4.59978,2471.964,2017-11-02T02:10:28Z
2017-11-02T00:10:36Z,42.805,6.029,13.2966,4.59972,2471.979,2017-11-02T02:12:03Z
2017-11-02T00:12:11Z,42.805,6.029,13.2956,4.59975,2471.987,2017-11-02T02:13:37Z
2017-11-02T00:13:46Z,42.805,6.029,13.2961,4.59980,2471.979,2017-11-02T02:15:12Z
2017-11-02T00:15:21Z,42.805,6.029,13.2959,4.59980,2471.942,2017-11-02T02:16:47Z
2017-11-02T00:16:56Z,42.805,6.029,13.2957,4.59972,2472.002,2017-11-02T02:18:22Z
2017-11-02T00:18:31Z,42.805,6.029,13.2955,4.59976,2471.957,2017-11-02T02:19:57Z
2017-11-02T00:20:05Z,42.805,6.029,13.2964,4.59978,2471.987,2017-11-02T02:21:32Z
2017-11-02T00:21:40Z,42.805,6.029,13.2966,4.59980,2471.979,2017-11-02T02:23:06Z
2017-11-02T00:23:15Z,42.805,6.029,13.2963,4.59976,2471.942,2017-11-02T02:24:41Z
2017-11-02T00:24:50Z,42.805,6.029,13.2981,4.59981,2471.979,2017-11-02T02:26:16Z
2017-11-02T00:26:25Z,42.805,6.029,13.2966,4.59978,2471.964,2017-11-02T02:27:51Z
2017-11-02T00:28:00Z,42.805,6.029,13.2958,4.59979,2472.002,2017-11-02T02:29:26Z
2017-11-02T00:29:34Z,42.805,6.029,13.2957,4.59974,2471.987,2017-11-02T02:31:01Z
2017-11-02T00:31:09Z,42.805,6.029,13.2961,4.59984,2471.964,2017-11-02T02:32:35Z
2017-11-02T00:32:44Z,42.805,6.029,13.2969,4.59986,2471.957,2017-11-02T02:34:10Z
2017-11-02T00:34:19Z,42.805,6.029,13.2959,4.59987,2471.979,2017-11-02T02:35:45Z
2017-11-02T00:35:54Z,42.805,6.029,13.2958,4.59975,2471.979,2017-11-02T02:37:20Z
2017-11-02T00:37:29Z,42.805,6.029,13.2967,4.59986,2471.979,2017-11-02T02:38:55Z
2017-11-02T00:39:03Z,42.805,6.029,13.2966,4.59986,2471.979,2017-11-02T02:40:30Z
2017-11-02T00:40:38Z,42.805,6.029,13.2964,4.59974,2472.002,2017-11-02T02:42:04Z
2017-11-02T00:42:13Z,42.805,6.029,13.2963,4.59969,2472.002,2017-11-02T02:43:39Z
2017-11-02T00:43:48Z,42.805,6.029,13.2961,4.59975,2471.979,2017-11-02T02:45:14Z
2017-11-02T00:45:23Z,42.805,6.029,13.2957,4.59972,2471.957,2017-11-02T02:46:49Z
2017-11-02T00:46:58Z,42.805,6.029,13.2957,4.59983,2471.964,2017-11-02T02:48:24Z
2017-11-02T00:48:32Z,42.805,6.029,13.2968,4.59975,2471.957,2017-11-02T02:49:59Z
2017-11-02T00:50:07Z,42.805,6.029,13.2961,4.59975,2471.964,2017-11-02T02:51:33Z
2017-11-02T00:51:42Z,42.805,6.029,13.2966,4.59975,2471.994,2017-11-02T02:53:08Z
2017-11-02T00:53:17Z,42.805,6.029,13.2958,4.59984,2472.002,2017-11-02T02:54:43Z
2017-11-02T00:54:52Z,42.805,6.029,13.2970,4.59983,2471.979,2017-11-02T02:56:18Z
2017-11-02T00:56:27Z,42.805,6.029,13.2964,4.59989,2471.979,2017-11-02T02:57:53Z
2017-11-02T00:58:01Z,42.805,6.029,13.2957,4.59974,2472.002,2017-11-02T02:59:28Z
2017-11-02T00:59:36Z,42.805,6.029,13.2961,4.59987,2471.964,2017-11-02T03:01:02Z
2017-11-02T01:01:11Z,42.805,6.029,13.2958,4.59978,2471.942,2017-11-02T03:02:37Z
2017-11-02T01:02:46Z,42.805,6.029,13.2953,4.59974,2472.002,2017-11-02T03:04:12Z
2017-11-02T01:04:21Z,42.805,6.029,13.2971,4.59972,2471.957,2017-11-02T03:05:47Z
2017-11-02T01:05:56Z,42.805,6.029,13.2968,4.59978,2471.979,2017-11-02T03:07:22Z
2017-11-02T01:07:30Z,42.805,6.029,13.2961,4.59980,2471.979,2017-11-02T03:08:57Z
2017-11-02T01:09:05Z,42.805,6.029,13.2971,4.59978,2471.979,2017-11-02T03:10:31Z
2017-11-02T01:10:40Z,42.805,6.029,13.2961,4.59975,2471.964,2017-11-02T03:12:06Z
2017-11-02T01:12:15Z,42.805,6.029,13.2963,4.59975,2472.002,2017-11-02T03:13:41Z
2017-11-02T01:13:50Z,42.805,6.029,13.2955,4.59976,2471.987,2017-11-02T03:15:16Z
2017-11-02T01:15:25Z,42.805,6.029,13.2961,4.59973,2472.002,2017-11-02T03:16:51Z
2017-11-02T01:16:59Z,42.805,6.029,13.2962,4.59984,2471.979,2017-11-02T03:18:26Z
2017-11-02T01:18:34Z,42.805,6.029,13.2968,4.59979,2471.979,2017-11-02T03:20:00Z
2017-11-02T01:20:09Z,42.805,6.029,13.2962,4.59969,2471.964,2017-11-02T03:21:35Z
2017-11-02T01:21:44Z,42.805,6.029,13.2954,4.59974,2472.002,2017-11-02T03:23:10Z
2017-11-02T01:23:19Z,42.805,6.029,13.2951,4.59970,2472.002,2017-11-02T03:24:45Z
2017-11-02T01:24:54Z,42.805,6.029,13.2964,4.59972,2471.979,2017-11-02T03:26:20Z
2017-11-02T01:26:28Z,42.805,6.029,13.2957,4.59974,2472.002,2017-11-02T03:27:55Z
2017-11-02T01:28:03Z,42.805,6.029,13.2958,4.59977,2472.002,2017-11-02T03:29:29Z
2017-11-02T01:29:38Z,42.805,6.029,13.2964,4.59978,2472.002,2017-11-02T03:31:04Z
2017-11-02T01:31:13Z,42.805,6.029,13.2970,4.59979,2471.979,2017-11-02T03:32:39Z
2017-11-02T01:32:48Z,42.805,6.029,13.2962,4.59983,2471.964,2017-11-02T03:34:14Z
2017-11-02T01:34:23Z,42.805,6.029,13.2966,4.59972,2471.964,2017-11-02T03:35:49Z
2017-11-02T01:35:57Z,42.805,6.029,13.2985,4.59979,2471.964,2017-11-02T03:37:24Z
2017-11-02T01:37:32Z,42.805,6.029,13.2968,4.59971,2471.964,2017-11-02T03:38:58Z
2017-11-02T01:39:07Z,42.805,6.029,13.2961,4.59977,2471.979,2017-11-02T03:40:33Z
2017-11-02T01:40:42Z,42.805,6.029,13.2966,4.59981,2472.002,2017-11-02T03:42:08Z
2017-11-02T01:42:17Z,42.805,6.029,13.2978,4.59978,2472.002,2017-11-02T03:43:43Z
2017-11-02T01:43:52Z,42.805,6.029,13.2959,4.59976,2472.024,2017-11-02T03:45:18Z
2017-11-02T01:45:26Z,42.805,6.029,13.2959,4.59978,2472.024,2017-11-02T03:46:53Z
2017-11-02T01:47:01Z,42.805,6.029,13.2959,4.60002,2472.024,2017-11-02T03:48:27Z
2017-11-02T01:48:36Z,42.805,6.029,13.2978,4.59981,2472.032,2017-11-02T03:50:02Z
2017-11-02T01:50:11Z,42.805,6.029,13.2963,4.59979,2472.024,2017-11-02T03:51:37Z
2017-11-02T01:51:46Z,42.805,6.029,13.2963,4.59975,2472.002,2017-11-02T03:53:12Z
2017-11-02T01:53:21Z,42.805,6.029,13.2962,4.59967,2472.024,2017-11-02T03:54:47Z
2017-11-02T01:54:55Z,42.805,6.029,13.2958,4.59970,2472.024,2017-11-02T03:56:22Z
2017-11-02T01:56:30Z,42.805,6.029,13.2976,4.59971,2472.002,2017-11-02T03:57:56Z
2017-11-02T01:58:05Z,42.805,6.029,13.2961,4.59978,2471.987,2017-11-02T03:59:31Z
2017-11-02T01:59:40Z,42.805,6.029,13.2970,4.59978,2472.002,2017-11-02T04:01:06Z
2017-11-02T02:01:15Z,42.805,6.029,13.2965,4.59972,2472.002,2017-11-02T04:02:41Z
2017-11-02T02:02:50Z,42.805,6.029,13.2958,4.59975,2472.032,2017-11-02T04:04:16Z
2017-11-02T02:04:24Z,42.805,6.029,13.2959,4.59975,2472.024,2017-11-02T04:05:51Z
2017-11-02T02:05:59Z,42.805,6.029,13.2973,4.59977,2472.002,2017-11-02T04:07:25Z
2017-11-02T02:07:34Z,42.805,6.029,13.2973,4.59978,2472.024,2017-11-02T04:09:00Z
2017-11-02T02:09:09Z,42.805,6.029,13.2964,4.59978,2472.024,2017-11-02T04:10:35Z
2017-11-02T02:10:44Z,42.805,6.029,13.2957,4.59975,2472.024,2017-11-02T04:12:10Z
2017-11-02T02:12:19Z,42.805,6.029,13.2958,4.59974,2472.047,2017-11-02T04:13:45Z
2017-11-02T02:13:53Z,42.805,6.029,13.2973,4.59972,2472.024,2017-11-02T04:15:20Z
2017-11-02T02:15:28Z,42.805,6.029,13.2975,4.59975,2472.002,2017-11-02T04:16:54Z
2017-11-02T02:17:03Z,42.805,6.029,13.2957,4.59983,2472.024,2017-11-02T04:18:29Z
2017-11-02T02:18:38Z,42.805,6.029,13.2970,4.59978,2472.024,2017-11-02T04:20:04Z
2017-11-02T02:20:13Z,42.805,6.029,13.2976,4.59981,2472.024,2017-11-02T04:21:39Z
2017-11-02T02:21:47Z,42.805,6.029,13.2973,4.59986,2472.032,2017-11-02T04:23:14Z
2017-11-02T02:23:22Z,42.805,6.029,13.2973,4.59981,2472.024,2017-11-02T04:24:48Z
2017-11-02T02:24:57Z,42.805,6.029,13.2961,4.59983,2472.024,2017-11-02T04:26:23Z
2017-11-02T02:26:32Z,42.805,6.029,13.2961,4.59978,2472.024,2017-11-02T04:27:58Z
2017-11-02T02:28:07Z,42.805,6.029,13.2971,4.59981,2472.024,2017-11-02T04:29:33Z
2017-11-02T02:29:42Z,42.805,6.029,13.2972,4.59979,2472.024,2017-11-02T04:31:08Z
2017-11-02T02:31:16Z,42.805,6.029,13.2957,4.59978,2472.047,2017-11-02T04:32:43Z
2017-11-02T02:32:51Z,42.805,6.029,13.2961,4.59971,2472.069,2017-11-02T04:34:18Z
2017-11-02T02:34:26Z,42.805,6.029,13.2956,4.59979,2472.047,2017-11-02T04:35:52Z
2017-11-02T02:36:01Z,42.805,6.029,13.2959,4.59984,2472.069,2017-11-02T04:37:27Z
2017-11-02T02:37:36Z,42.805,6.029,13.2957,4.59980,2472.069,2017-11-02T04:39:02Z
2017-11-02T02:39:11Z,42.805,6.029,13.2960,4.59990,2472.024,2017-11-02T04:40:37Z
2017-11-02T02:40:45Z,42.805,6.029,13.2958,4.59984,2472.047,2017-11-02T04:42:12Z
2017-11-02T02:42:20Z,42.805,6.029,13.2975,4.59972,2472.047,2017-11-02T04:43:46Z
2017-11-02T02:43:55Z,42.805,6.029,13.2948,4.59976,2472.002,2017-11-02T04:45:21Z
2017-11-02T02:45:30Z,42.805,6.029,13.2948,4.59994,2472.032,2017-11-02T04:46:56Z
2017-11-02T02:47:05Z,42.805,6.029,13.2949,4.59987,2472.047,2017-11-02T04:48:31Z
2017-11-02T02:48:40Z,42.805,6.029,13.2948,4.59992,2472.069,2017-11-02T04:50:06Z
2017-11-02T02:50:14Z,42.805,6.029,13.2951,4.59969,2472.069,2017-11-02T04:51:41Z
2017-11-02T02:51:49Z,42.805,6.029,13.2950,4.59974,2472.069,2017-11-02T04:53:15Z
2017-11-02T02:53:24Z,42.805,6.029,13.2955,4.59983,2472.047,2017-11-02T04:54:50Z
2017-11-02T02:54:59Z,42.805,6.029,13.2949,4.59976,2472.069,2017-11-02T04:56:25Z
2017-11-02T02:56:34Z,42.805,6.029,13.2954,4.59985,2472.032,2017-11-02T04:58:00Z
2017-11-02T02:58:09Z,42.805,6.029,13.2953,4.59984,2472.069,2017-11-02T04:59:35Z
2017-11-02T02:59:43Z,42.805,6.029,13.2955,4.59973,2472.032,2017-11-02T05:01:10Z
2017-11-02T03:01:18Z,42.805,6.029,13.2951,4.59981,2472.069,2017-11-02T05:02:44Z
2017-11-02T03:02:53Z,42.805,6.029,13.2954,4.59982,2472.069,2017-11-02T05:04:19Z
2017-11-02T03:04:28Z,42.805,6.029,13.2985,4.59979,2472.069,2017-11-02T05:05:54Z
2017-11-02T03:06:03Z,42.805,6.029,13.2947,4.59987,2472.092,2017-11-02T05:07:29Z
2017-11-02T03:07:38Z,42.805,6.029,13.2951,4.59970,2472.069,2017-11-02T05:09:04Z
2017-11-02T03:09:12Z,42.805,6.029,13.2965,4.59984,2472.069,2017-11-02T05:10:39Z
2017-11-02T03:10:47Z,42.805,6.029,13.2964,4.59981,2472.032,2017-11-02T05:12:13Z
2017-11-02T03:12:22Z,42.805,6.029,13.2978,4.59974,2472.092,2017-11-02T05:13:48Z
2017-11-02T03:13:57Z,42.805,6.029,13.2954,4.59968,2472.047,2017-11-02T05:15:23Z
2017-11-02T03:15:32Z,42.805,6.029,13.2951,4.59987,2472.047,2017-11-02T05:16:58Z
2017-11-02T03:17:07Z,42.805,6.029,13.2951,4.59988,2472.069,2017-11-02T05:18:33Z
2017-11-02T03:18:41Z,42.805,6.029,13.2957,4.59984,2472.069,2017-11-02T05:20:08Z
2017-11-02T03:20:16Z,42.805,6.029,13.2961,4.59994,2472.069,2017-11-02T05:21:42Z
2017-11-02T03:21:51Z,42.805,6.029,13.2959,4.59981,2472.077,2017-11-02T05:23:17Z
2017-11-02T03:23:26Z,42.805,6.029,13.2949,4.59978,2472.084,2017-11-02T05:24:52Z
2017-11-02T03:25:01Z,42.805,6.029,13.2947,4.60000,2472.055,2017-11-02T05:26:27Z
2017-11-02T03:26:36Z,42.805,6.029,13.2965,4.59979,2472.1,2017-11-02T05:28:02Z
2017-11-02T03:28:10Z,42.805,6.029,13.2950,4.59984,2472.055,2017-11-02T05:29:37Z
2017-11-02T03:29:45Z,42.805,6.029,13.2949,4.59986,2472.092,2017-11-02T05:31:11Z
2017-11-02T03:31:20Z,42.805,6.029,13.2954,4.60000,2472.115,2017-11-02T05:32:46Z
2017-11-02T03:32:55Z,42.805,6.029,13.2948,4.59979,2472.077,2017-11-02T05:34:21Z
2017-11-02T03:34:30Z,42.805,6.029,13.2954,4.59975,2472.115,2017-11-02T05:35:56Z
2017-11-02T03:36:05Z,42.805,6.029,13.2954,4.59992,2472.115,2017-11-02T05:37:31Z
2017-11-02T03:37:39Z,42.805,6.029,13.2961,4.60003,2472.092,2017-11-02T05:39:06Z
2017-11-02T03:39:14Z,42.805,6.029,13.2958,4.59975,2472.092,2017-11-02T05:40:40Z
2017-11-02T03:40:49Z,42.805,6.029,13.2962,4.59983,2472.092,2017-11-02T05:42:15Z
2017-11-02T03:42:24Z,42.805,6.029,13.2953,4.59982,2472.047,2017-11-02T05:43:50Z
2017-11-02T03:43:59Z,42.805,6.029,13.2962,4.59977,2472.069,2017-11-02T05:45:25Z
2017-11-02T03:45:34Z,42.805,6.029,13.2961,4.59980,2472.092,2017-11-02T05:47:00Z
2017-11-02T03:47:08Z,42.805,6.029,13.2957,4.59981,2472.092,2017-11-02T05:48:35Z
2017-11-02T03:48:43Z,42.805,6.029,13.2955,4.59981,2472.1,2017-11-02T05:50:09Z
2017-11-02T03:50:18Z,42.805,6.029,13.2952,4.59990,2472.092,2017-11-02T05:51:44Z
2017-11-02T03:51:53Z,42.805,6.029,13.2954,4.59971,2472.115,2017-11-02T05:53:19Z
2017-11-02T03:53:28Z,42.805,6.029,13.2958,4.59970,2472.129,2017-11-02T05:54:54Z
2017-11-02T03:55:03Z,42.805,6.029,13.2959,4.59981,2472.115,2017-11-02T05:56:29Z
2017-11-02T03:56:37Z,42.805,6.029,13.2954,4.59972,2472.092,2017-11-02T05:58:04Z
2017-11-02T03:58:12Z,42.805,6.029,13.2950,4.59990,2472.115,2017-11-02T05:59:38Z
2017-11-02T03:59:47Z,42.805,6.029,13.2957,4.59985,2472.123,2017-11-02T06:01:13Z
2017-11-02T04:01:22Z,42.805,6.029,13.2954,4.59985,2472.115,2017-11-02T06:02:48Z
2017-11-02T04:02:57Z,42.805,6.029,13.2954,4.59996,2472.115,2017-11-02T06:04:23Z
2017-11-02T04:04:31Z,42.805,6.029,13.2964,4.59985,2472.115,2017-11-02T06:05:58Z
2017-11-02T04:06:06Z,42.805,6.029,13.2959,4.59987,2472.115,2017-11-02T06:07:33Z
2017-11-02T04:07:41Z,42.805,6.029,13.2957,4.59980,2472.115,2017-11-02T06:09:07Z
2017-11-02T04:09:16Z,42.805,6.029,13.2968,4.59992,2472.137,2017-11-02T06:10:42Z
2017-11-02T04:10:51Z,42.805,6.029,13.2954,4.59980,2472.092,2017-11-02T06:12:17Z
2017-11-02T04:12:26Z,42.805,6.029,13.2958,4.59971,2472.137,2017-11-02T06:13:52Z
2017-11-02T04:14:00Z,42.805,6.029,13.2959,4.59999,2472.115,2017-11-02T06:15:27Z
2017-11-02T04:15:35Z,42.805,6.029,13.2957,4.59984,2472.137,2017-11-02T06:17:01Z
2017-11-02T04:17:10Z,42.805,6.029,13.2955,4.59972,2472.115,2017-11-02T06:18:36Z
2017-11-02T04:18:45Z,42.805,6.029,13.2966,4.59981,2472.16,2017-11-02T06:20:11Z
2017-11-02T04:20:20Z,42.805,6.029,13.2953,4.59985,2472.123,2017-11-02T06:21:46Z
2017-11-02T04:21:55Z,42.805,6.029,13.2968,4.59983,2472.137,2017-11-02T06:23:21Z
2017-11-02T04:23:29Z,42.805,6.029,13.2948,4.59987,2472.137,2017-11-02T06:24:56Z
2017-11-02T04:25:04Z,42.805,6.029,13.2945,4.59990,2472.115,2017-11-02T06:26:30Z
2017-11-02T04:26:39Z,42.805,6.029,13.2964,4.59983,2472.115,2017-11-02T06:28:05Z
2017-11-02T04:28:14Z,42.805,6.029,13.2957,4.59984,2472.145,2017-11-02T06:29:40Z
2017-11-02T04:29:49Z,42.805,6.029,13.2996,4.59967,2472.115,2017-11-02T06:31:15Z
2017-11-02T04:31:24Z,42.805,6.029,13.2970,4.59974,2472.1,2017-11-02T06:32:50Z
2017-11-02T04:32:58Z,42.805,6.029,13.2948,4.59974,2472.145,2017-11-02T06:34:25Z
2017-11-02T04:34:33Z,42.805,6.029,13.2952,4.59977,2472.137,2017-11-02T06:35:59Z
2017-11-02T04:36:08Z,42.805,6.029,13.2955,4.59985,2472.115,2017-11-02T06:37:34Z
2017-11-02T04:37:43Z,42.805,6.029,13.2963,4.59975,2472.123,2017-11-02T06:39:09Z
2017-11-02T04:39:18Z,42.805,6.029,13.2958,4.59990,2472.137,2017-11-02T06:40:44Z
2017-11-02T04:40:53Z,42.805,6.029,13.2950,4.59984,2472.137,2017-11-02T06:42:19Z
2017-11-02T04:42:27Z,42.805,6.029,13.2951,4.59987,2472.123,2017-11-02T06:43:54Z
2017-11-02T04:44:02Z,42.805,6.029,13.2950,4.59972,2472.137,2017-11-02T06:45:28Z
2017-11-02T04:45:37Z,42.805,6.029,13.2953,4.59990,2472.123,2017-11-02T06:47:03Z
2017-11-02T04:47:12Z,42.805,6.029,13.2958,4.59984,2472.115,2017-11-02T06:48:38Z
2017-11-02T04:48:47Z,42.805,6.029,13.2961,4.59977,2472.115,2017-11-02T06:50:13Z
2017-11-02T04:50:22Z,42.805,6.029,13.2957,4.59987,2472.16,2017-11-02T06:51:48Z
2017-11-02T04:51:56Z,42.805,6.029,13.2955,4.59975,2472.16,2017-11-02T06:53:23Z
2017-11-02T04:53:31Z,42.805,6.029,13.2953,4.59985,2472.16,2017-11-02T06:54:57Z
2017-11-02T04:55:06Z,42.805,6.029,13.2959,4.59980,2472.182,2017-11-02T06:56:32Z
2017-11-02T04:56:41Z,42.805,6.029,13.2953,4.59974,2472.16,2017-11-02T06:58:07Z
2017-11-02T04:58:16Z,42.805,6.029,13.2957,4.59975,2472.123,2017-11-02T06:59:42Z
2017-11-02T04:59:51Z,42.805,6.029,13.2955,4.59981,2472.16,2017-11-02T07:01:17Z
2017-11-02T05:01:25Z,42.805,6.029,13.2957,4.59977,2472.16,2017-11-02T07:02:52Z
2017-11-02T05:03:00Z,42.805,6.029,13.2949,4.59977,2472.137,2017-11-02T07:04:26Z
2017-11-02T05:04:35Z,42.805,6.029,13.2953,4.59971,2472.137,2017-11-02T07:06:01Z
2017-11-02T05:06:10Z,42.805,6.029,13.2954,4.59980,2472.16,2017-11-02T07:07:36Z
2017-11-02T05:07:45Z,42.805,6.029,13.2960,4.59979,2472.16,2017-11-02T07:09:11Z
2017-11-02T05:09:20Z,42.805,6.029,13.2952,4.59999,2472.182,2017-11-02T07:10:46Z
2017-11-02T05:10:54Z,42.805,6.029,13.2963,4.59975,2472.152,2017-11-02T07:12:21Z
2017-11-02T05:12:29Z,42.805,6.029,13.2959,4.59967,2472.16,2017-11-02T07:13:55Z
2017-11-02T05:14:04Z,42.805,6.029,13.2956,4.59988,2472.168,2017-11-02T07:15:30Z
2017-11-02T05:15:39Z,42.805,6.029,13.2954,4.59984,2472.123,2017-11-02T07:17:05Z
2017-11-02T05:17:14Z,42.805,6.029,13.2950,4.59990,2472.16,2017-11-02T07:18:40Z
2017-11-02T05:18:49Z,42.805,6.029,13.2961,4.59992,2472.123,2017-11-02T07:20:15Z
2017-11-02T05:20:23Z,42.805,6.029,13.2958,4.59989,2472.182,2017-11-02T07:21:50Z
2017-11-02T05:21:58Z,42.805,6.029,13.2962,4.60000,2472.16,2017-11-02T07:23:24Z
2017-11-02T05:23:33Z,42.805,6.029,13.2966,4.59996,2472.16,2017-11-02T07:24:59Z
2017-11-02T05:25:08Z,42.805,6.029,13.2961,4.59998,2472.16,2017-11-02T07:26:34Z
2017-11-02T05:26:43Z,42.805,6.029,13.2958,4.60009,2472.145,2017-11-02T07:28:09Z
2017-11-02T05:28:18Z,42.805,6.029,13.2972,4.59971,2472.16,2017-11-02T07:29:44Z
2017-11-02T05:29:52Z,42.805,6.029,13.2964,4.60005,2472.16,2017-11-02T07:31:19Z
2017-11-02T05:31:27Z,42.805,6.029,13.2962,4.59972,2472.182,2017-11-02T07:32:53Z
2017-11-02T05:33:02Z,42.805,6.029,13.2954,4.59984,2472.182,2017-11-02T07:34:28Z
2017-11-02T05:34:37Z,42.805,6.029,13.2957,4.60013,2472.16,2017-11-02T07:36:03Z
2017-11-02T05:36:12Z,42.805,6.029,13.2957,4.59991,2472.182,2017-11-02T07:37:38Z
2017-11-02T05:37:47Z,42.805,6.029,13.2961,4.59970,2472.198,2017-11-02T07:39:13Z
2017-11-02T05:39:21Z,42.805,6.029,13.2948,4.59998,2472.123,2017-11-02T07:40:48Z
2017-11-02T05:40:56Z,42.805,6.029,13.2969,4.59974,2472.137,2017-11-02T07:42:22Z
2017-11-02T05:42:31Z,42.805,6.029,13.2965,4.60008,2472.182,2017-11-02T07:43:57Z
2017-11-02T05:44:06Z,42.805,6.029,13.2964,4.59991,2472.145,2017-11-02T07:45:32Z
2017-11-02T05:45:41Z,42.805,6.029,13.2969,4.59990,2472.205,2017-11-02T07:47:07Z
2017-11-02T05:47:16Z,42.805,6.029,13.2962,4.59972,2472.16,2017-11-02T07:48:42Z
2017-11-02T05:48:50Z,42.805,6.029,13.2958,4.59984,2472.16,2017-11-02T07:50:17Z
2017-11-02T05:50:25Z,42.805,6.029,13.2966,4.59997,2472.16,2017-11-02T07:51:51Z
2017-11-02T05:52:00Z,42.805,6.029,13.2973,4.59987,2472.16,2017-11-02T07:53:26Z
2017-11-02T05:53:35Z,42.805,6.029,13.2959,4.59998,2472.123,2017-11-02T07:55:01Z
2017-11-02T05:55:10Z,42.805,6.029,13.2968,4.59979,2472.16,2017-11-02T07:56:36Z
2017-11-02T05:56:45Z,42.805,6.029,13.2961,4.59973,2472.182,2017-11-02T07:58:11Z
2017-11-02T05:58:19Z,42.805,6.029,13.2955,4.59997,2472.16,2017-11-02T07:59:46Z
2017-11-02T05:59:54Z,42.805,6.029,13.2959,4.59997,2472.145,2017-11-02T08:01:20Z
2017-11-02T06:01:29Z,42.805,6.029,13.2956,4.59981,2472.16,2017-11-02T08:02:55Z
2017-11-02T06:03:04Z,42.805,6.029,13.2954,4.59993,2472.168,2017-11-02T08:04:30Z
2017-11-02T06:04:39Z,42.805,6.029,13.2971,4.59995,2472.16,2017-11-02T08:06:05Z
2017-11-02T06:06:13Z,42.805,6.029,13.2977,4.59987,2472.182,2017-11-02T08:07:40Z
2017-11-02T06:07:48Z,42.805,6.029,13.2958,4.59990,2472.145,2017-11-02T08:09:15Z
2017-11-02T06:09:23Z,42.805,6.029,13.2961,4.60006,2472.16,2017-11-02T08:10:49Z
2017-11-02T06:10:58Z,42.805,6.029,13.2968,4.59994,2472.182,2017-11-02T08:12:24Z
2017-11-02T06:12:33Z,42.805,6.029,13.2964,4.59973,2472.16,2017-11-02T08:13:59Z
2017-11-02T06:14:08Z,42.805,6.029,13.2943,4.59981,2472.16,2017-11-02T08:15:34Z
2017-11-02T06:15:42Z,42.805,6.029,13.2943,4.59978,2472.175,2017-11-02T08:17:09Z
2017-11-02T06:17:17Z,42.805,6.029,13.2952,4.59984,2472.16,2017-11-02T08:18:43Z
2017-11-02T06:18:52Z,42.805,6.029,13.2957,4.59980,2472.168,2017-11-02T08:20:18Z
2017-11-02T06:20:27Z,42.805,6.029,13.2958,4.60004,2472.115,2017-11-02T08:21:53Z
2017-11-02T06:22:02Z,42.805,6.029,13.2950,4.59992,2472.16,2017-11-02T08:23:28Z
2017-11-02T06:23:37Z,42.805,6.029,13.2958,4.60005,2472.16,2017-11-02T08:25:03Z
2017-11-02T06:25:11Z,42.805,6.029,13.2957,4.59990,2472.16,2017-11-02T08:26:38Z
2017-11-02T06:26:46Z,42.805,6.029,13.2952,4.59992,2472.123,2017-11-02T08:28:12Z
2017-11-02T06:28:21Z,42.805,6.029,13.2954,4.60009,2472.16,2017-11-02T08:29:47Z
2017-11-02T06:29:56Z,42.805,6.029,13.2965,4.59983,2472.16,2017-11-02T08:31:22Z
2017-11-02T06:31:31Z,42.805,6.029,13.2969,4.59991,2472.16,2017-11-02T08:32:57Z
2017-11-02T06:33:06Z,42.805,6.029,13.2954,4.59985,2472.182,2017-11-02T08:34:32Z
2017-11-02T06:34:40Z,42.805,6.029,13.2958,4.59986,2472.145,2017-11-02T08:36:07Z
2017-11-02T06:36:15Z,42.805,6.029,13.2966,4.60001,2472.145,2017-11-02T08:37:41Z
2017-11-02T06:37:50Z,42.805,6.029,13.2973,4.60001,2472.182,2017-11-02T08:39:16Z
2017-11-02T06:39:25Z,42.805,6.029,13.2966,4.59981,2472.168,2017-11-02T08:40:51Z
2017-11-02T06:41:00Z,42.805,6.029,13.2954,4.59983,2472.182,2017-11-02T08:42:26Z
2017-11-02T06:42:35Z,42.805,6.029,13.2953,4.59970,2472.16,2017-11-02T08:44:01Z
2017-11-02T06:44:09Z,42.805,6.029,13.2948,4.59979,2472.16,2017-11-02T08:45:36Z
2017-11-02T06:45:44Z,42.805,6.029,13.2951,4.59982,2472.16,2017-11-02T08:47:10Z
2017-11-02T06:47:19Z,42.805,6.029,13.2949,4.59969,2472.16,2017-11-02T08:48:45Z
2017-11-02T06:48:54Z,42.805,6.029,13.2956,4.59997,2472.16,2017-11-02T08:50:20Z
2017-11-02T06:50:29Z,42.805,6.029,13.2951,4.59987,2472.145,2017-11-02T08:51:55Z
2017-11-02T06:52:04Z,42.805,6.029,13.2968,4.59973,2472.16,2017-11-02T08:53:30Z
2017-11-02T06:53:38Z,42.805,6.029,13.2957,4.59980,2472.182,2017-11-02T08:55:05Z
2017-11-02T06:55:13Z,42.805,6.029,13.2950,4.59987,2472.145,2017-11-02T08:56:39Z
2017-11-02T06:56:48Z,42.805,6.029,13.2951,4.59979,2472.16,2017-11-02T08:58:14Z
2017-11-02T06:58:23Z,42.805,6.029,13.2951,4.59991,2472.145,2017-11-02T08:59:49Z
2017-11-02T06:59:55Z,42.805,6.029,13.2953,4.59982,2472.123,2017-11-02T09:01:21Z
2017-11-02T07:01:29Z,42.805,6.029,13.2957,4.59981,2472.123,2017-11-02T09:02:56Z
2017-11-02T07:03:04Z,42.805,6.029,13.2962,4.59984,2472.16,2017-11-02T09:04:30Z
2017-11-02T07:04:39Z,42.805,6.029,13.2945,4.59984,2472.145,2017-11-02T09:06:05Z
2017-11-02T07:06:14Z,42.805,6.029,13.2952,4.59984,2472.16,2017-11-02T09:07:40Z
2017-11-02T07:07:49Z,42.805,6.029,13.2951,4.59972,2472.1,2017-11-02T09:09:15Z
2017-11-02T07:09:23Z,42.805,6.029,13.2958,4.59981,2472.137,2017-11-02T09:10:50Z
2017-11-02T07:10:58Z,42.805,6.029,13.2962,4.59986,2472.16,2017-11-02T09:12:25Z
2017-11-02T07:12:33Z,42.805,6.029,13.2951,4.59967,2472.145,2017-11-02T09:13:59Z
2017-11-02T07:14:08Z,42.805,6.029,13.2949,4.59977,2472.123,2017-11-02T09:15:34Z
2017-11-02T07:15:43Z,42.805,6.029,13.2952,4.59972,2472.16,2017-11-02T09:17:09Z
2017-11-02T07:17:18Z,42.805,6.029,13.2957,4.59971,2472.145,2017-11-02T09:18:44Z
2017-11-02T07:18:52Z,42.805,6.029,13.2948,4.59969,2472.123,2017-11-02T09:20:19Z
2017-11-02T07:20:27Z,42.805,6.029,13.2950,4.59973,2472.115,2017-11-02T09:21:54Z
2017-11-02T07:22:02Z,42.805,6.029,13.2957,4.59975,2472.137,2017-11-02T09:23:28Z
2017-11-02T07:23:37Z,42.805,6.029,13.2951,4.59965,2472.137,2017-11-02T09:25:03Z
2017-11-02T07:25:12Z,42.805,6.029,13.2950,4.59974,2472.115,2017-11-02T09:26:38Z
2017-11-02T07:26:47Z,42.805,6.029,13.2953,4.59985,2472.16,2017-11-02T09:28:13Z
2017-11-02T07:28:21Z,42.805,6.029,13.2950,4.59978,2472.137,2017-11-02T09:29:48Z
2017-11-02T07:29:56Z,42.805,6.029,13.2951,4.59972,2472.115,2017-11-02T09:31:23Z
2017-11-02T07:31:31Z,42.805,6.029,13.2950,4.59979,2472.123,2017-11-02T09:32:57Z
2017-11-02T07:33:06Z,42.805,6.029,13.2948,4.59967,2472.123,2017-11-02T09:34:32Z
2017-11-02T07:34:41Z,42.805,6.029,13.2954,4.59981,2472.1,2017-11-02T09:36:07Z
2017-11-02T07:36:16Z,42.805,6.029,13.2962,4.59977,2472.123,2017-11-02T09:37:42Z
2017-11-02T07:37:50Z,42.805,6.029,13.2948,4.59978,2472.123,2017-11-02T09:39:17Z
2017-11-02T07:39:25Z,42.805,6.029,13.2954,4.59978,2472.16,2017-11-02T09:40:52Z
2017-11-02T07:41:00Z,42.805,6.029,13.2951,4.59987,2472.137,2017-11-02T09:42:26Z
2017-11-02T07:42:35Z,42.805,6.029,13.2958,4.59967,2472.123,2017-11-02T09:44:01Z
2017-11-02T07:44:10Z,42.805,6.029,13.2943,4.59975,2472.137,2017-11-02T09:45:36Z
2017-11-02T07:45:45Z,42.805,6.029,13.2950,4.59984,2472.137,2017-11-02T09:47:11Z